sat.trackr.live / text

‹ back to catalog

LEMUR-2-DEANANDMAEVE

NORAD 66680 · 2025-276Q

PAYLOAD ACTIVE UNKNOWN

§ Identity

Operator
Country
US
Launch date
2025-11-28
Launch site
AFWTR
Launch vehicle
Mass (kg)
RCS (m²)

External: N2YO · Heavens-Above · Gunter

§ Orbital elements

Epoch: 2026-09-19T10:45:25.546176Z

Period
94.73 min
Inclination
97.4121°
Eccentricity
0.0006557
Mean motion
15.20038475 rev/d
Perigee alt
501.2 km
Apogee alt
510.2 km
Semi-major
6,883.9 km
B*
1.5754e-4
RAAN
334.1757°
Arg perigee
42.3123°
Mean anomaly
317.8617°
Rev number
4,472

§ Raw data

LEMUR-2-DEANANDMAEVE1 66680U 25276Q   26262.44821234  .00003330  00000+0  15754-3 0  99972 66680  97.4121 334.1757 0006557  42.3123 317.8617 15.20038475 44725

JSON: /api/v1/satellites/66680 · /tle

For live sub-satellite position, see the globe view (requires WebGL).

§ Visibility from observer

Set your observer location to see the next 7 days of passes ≥ 10°. The values pass through the URL so the page stays shareable.

No JS? Fill the form by hand. The geolocation button needs JavaScript.